Theta_e
297 297 297 297 297 297 298 298 298 298 300 301 303 304 303 305 308 307 304 303 305 308 309 308 308 311 311 307 306 306 305 306 306 306 308 307 307 309 309 310 313 314 314 318 320 319 317 319 322 322 321 320 317 317 317 316 319 321 320 321 320 322 327 324 320 322 325 323 319 317 316 319 325 323 320 322 323 323 331 333 327 325 322 322 326 326 321
297 297 297 296 297 297 297 297 297 298 300 301 303 304 304 307 308 305 303 306 309 309 309 310 310 311 310 306 304 305 306 306 306 307 309 308 308 311 310 309 312 312 313 316 317 317 319 318 318 320 323 321 317 318 319 320 324 324 319 319 320 320 322 324 323 323 325 327 325 322 321 323 325 323 319 320 321 321 322 323 327 327 320 320 328 326 320
297 296 296 297 297 297 297 297 297 298 299 301 304 304 304 308 309 305 304 307 308 308 310 312 312 312 311 309 307 307 308 309 309 309 309 307 307 310 309 308 310 312 314 316 315 317 320 319 318 320 323 320 316 317 320 323 325 324 319 318 322 322 321 325 330 327 325 327 327 325 324 323 321 320 319 319 321 323 320 321 330 330 317 317 325 323 317
296 296 296 297 297 297 297 298 298 299 300 302 304 303 303 306 309 307 306 306 307 309 309 310 313 313 313 312 312 312 312 312 309 309 309 308 308 310 309 310 312 314 315 317 317 317 318 319 320 321 322 319 314 315 319 322 324 324 318 315 322 324 318 319 325 326 326 326 324 320 321 324 323 320 319 318 315 318 323 328 331 326 318 318 321 318 316
296 297 297 297 298 298 298 299 299 300 301 303 305 305 303 306 310 310 308 308 309 310 309 310 314 314 313 314 314 314 314 312 309 308 309 309 309 311 311 311 313 315 315 318 318 315 316 318 318 317 318 318 315 314 315 317 320 321 317 315 323 327 320 316 317 318 318 318 317 316 317 319 319 318 318 317 314 320 329 329 321 318 321 323 318 316 316
297 297 298 298 298 299 299 299 299 300 303 305 306 305 304 307 310 310 310 311 312 311 310 310 313 313 313 315 315 313 313 311 308 309 310 309 309 313 315 312 312 314 316 319 318 315 317 318 316 317 317 318 320 317 314 314 315 319 318 315 320 326 321 316 316 315 314 314 314 314 314 314 314 315 316 315 316 320 324 320 313 315 324 325 318 315 315
297 297 298 298 299 299 299 299 300 302 305 306 306 305 305 307 310 310 311 311 311 311 310 309 312 313 313 315 316 313 312 311 308 308 312 312 309 312 316 312 310 312 314 318 318 316 318 318 314 315 317 318 322 320 317 314 313 318 322 318 316 321 319 315 315 315 313 313 313 313 313 314 314 313 313 314 314 315 315 314 312 314 319 318 314 312 312
297 297 298 298 298 299 299 299 301 303 306 306 306 307 308 309 311 311 312 311 309 309 310 311 314 314 313 316 317 312 310 312 309 307 310 313 311 311 312 309 308 309 311 315 315 314 318 320 316 316 317 317 319 320 318 315 314 319 325 320 314 317 319 315 315 315 314 312 313 313 313 313 313 313 312 312 313 313 312 313 312 312 313 312 310 310 309
297 297 298 298 299 299 299 300 302 304 306 306 305 305 307 310 311 311 312 314 311 311 311 311 314 314 312 315 316 311 308 309 309 308 307 309 310 309 310 309 308 308 309 311 310 308 312 315 313 315 317 314 314 315 313 313 319 325 324 320 318 319 319 316 316 318 316 313 312 313 313 313 313 312 312 312 312 313 313 312 313 312 311 310 310 310 308
298 298 299 299 299 300 301 301 303 304 305 305 303 303 307 310 312 311 312 313 311 311 312 309 310 312 312 313 312 310 309 309 310 311 308 307 307 307 308 309 310 309 309 309 308 307 308 309 307 309 312 309 308 310 309 310 319 325 322 319 318 318 317 316 317 319 316 314 314 315 316 319 317 313 311 312 311 311 311 311 311 311 310 312 313 310 306
299 300 299 299 300 302 302 303 304 304 304 303 302 304 308 309 310 310 312 312 309 309 311 310 310 311 310 309 309 310 311 311 311 312 311 308 306 306 307 308 310 310 308 307 308 308 308 310 310 310 310 309 308 308 308 308 311 315 320 320 316 314 316 316 316 318 317 314 315 316 318 320 317 311 309 310 310 310 310 309 309 309 309 309 309 307 305
300 300 300 299 301 303 304 304 304 303 303 302 302 306 308 308 309 309 309 311 310 308 310 310 309 309 307 306 308 309 309 310 308 309 310 308 307 306 306 308 311 310 307 307 309 310 310 310 310 311 310 309 308 307 308 310 309 307 310 315 316 315 317 317 315 316 317 315 315 318 318 315 311 308 308 308 307 307 308 308 307 307 306 306 306 305 304
300 300 299 299 301 304 306 305 303 303 303 303 304 306 307 306 308 308 307 310 311 309 308 306 304 304 305 306 306 306 305 306 306 306 307 306 306 306 305 308 309 307 307 308 308 308 311 312 313 314 313 313 313 310 309 310 310 308 308 310 313 316 317 316 314 315 316 316 317 317 315 310 308 308 308 308 308 308 309 308 307 306 305 305 305 304 302
300 299 299 300 301 304 306 304 303 303 304 305 306 306 307 307 307 307 307 309 309 305 305 306 306 306 306 305 305 306 305 305 305 305 305 305 305 305 305 306 307 306 307 309 307 308 312 316 316 316 316 319 319 314 311 311 309 310 311 308 309 314 317 316 315 313 314 315 314 313 311 310 310 310 309 309 310 310 310 309 307 306 305 304 303 302 301
300 299 300 301 301 304 306 304 303 304 304 306 306 305 306 307 307 308 307 308 310 307 304 306 307 305 305 305 305 307 309 308 308 306 305 305 304 305 306 305 305 307 307 308 311 314 317 317 316 315 315 317 316 311 313 315 310 307 307 306 308 313 316 317 317 314 312 313 312 311 312 312 311 310 309 308 308 308 308 308 307 306 305 303 302 301 301
299 299 300 302 303 305 305 304 304 305 305 306 306 305 306 308 308 309 307 307 310 310 305 304 304 303 304 305 304 306 309 311 311 310 309 307 305 305 307 307 307 308 307 308 311 318 321 317 315 315 313 311 311 310 311 315 314 310 308 308 310 311 312 314 316 313 312 313 312 311 312 311 309 309 307 307 308 307 308 310 309 306 304 303 302 301 301
299 300 302 304 305 305 305 306 306 306 306 306 306 305 307 309 308 308 307 305 307 307 304 304 305 304 306 308 307 307 306 307 308 310 309 307 304 305 308 308 308 308 308 312 314 318 321 315 313 315 311 306 308 311 310 313 317 317 315 315 315 313 312 314 315 313 312 311 310 310 310 309 308 307 307 307 307 307 309 313 311 305 303 304 302 301 301
299 300 302 304 305 305 305 306 306 306 306 306 306 306 307 308 308 308 307 306 305 306 305 306 306 306 307 308 308 307 306 306 307 307 308 306 305 307 308 308 309 308 309 316 320 319 318 313 312 315 312 307 308 310 310 313 315 312 309 310 312 312 311 311 311 311 310 309 308 309 308 307 307 306 306 306 307 309 312 313 308 303 303 304 302 301 302
300 301 302 304 305 305 305 305 306 307 307 306 306 306 306 307 307 306 306 306 306 306 307 307 307 308 308 308 308 307 308 307 306 310 315 312 307 307 308 307 309 308 308 313 317 315 314 311 309 312 314 310 309 308 307 309 310 307 306 309 310 311 310 310 310 308 306 306 307 309 308 306 305 305 305 306 309 311 310 306 303 303 304 304 303 302 302
300 301 302 304 305 304 305 306 307 307 307 306 306 306 306 306 306 306 305 305 306 306 307 307 308 308 308 308 309 308 308 307 305 310 318 315 306 307 311 311 309 309 311 316 315 311 314 312 307 309 313 310 307 307 306 305 306 305 306 308 308 308 309 309 307 305 305 307 309 311 310 305 302 304 306 307 309 309 304 301 302 304 305 304 303 303 303
300 300 301 304 305 305 305 307 307 306 305 306 305 305 305 305 305 305 305 305 306 307 307 308 308 308 309 309 309 309 309 308 306 308 312 310 307 309 314 313 310 309 311 314 312 308 311 311 307 307 309 307 306 307 307 306 306 304 303 305 305 305 307 308 304 303 307 312 311 309 306 302 301 304 306 306 305 304 302 301 301 302 303 304 304 303 303
300 300 301 303 305 306 307 307 306 304 304 304 304 304 304 304 304 305 305 305 306 306 306 307 307 307 308 309 309 310 309 309 308 307 308 308 308 309 310 310 309 308 307 310 312 309 309 310 309 309 309 308 307 306 305 307 309 304 302 305 306 305 305 306 304 302 305 307 306 303 302 301 302 303 303 302 302 302 302 302 301 301 302 304 303 302 302
300 300 302 303 305 306 307 306 305 304 303 303 303 303 303 304 304 305 305 305 305 306 306 307 307 307 308 309 309 310 309 309 309 308 308 309 309 309 309 309 309 309 307 309 311 311 309 309 309 310 310 307 305 305 304 306 308 304 303 305 305 303 303 304 304 303 303 303 302 302 301 302 302 302 302 302 302 302 302 302 301 301 302 303 303 302 302
300 300 302 304 305 306 307 306 305 304 303 303 303 303 303 303 304 304 304 305 306 306 306 306 306 306 307 308 309 310 309 309 309 308 308 309 309 310 310 309 309 308 307 307 308 308 308 307 305 307 308 305 305 308 308 306 305 305 305 306 305 303 304 304 303 303 304 303 302 302 301 301 301 301 301 301 301 301 302 302 302 301 301 302 302 301 301
300 300 302 304 305 307 307 306 305 305 304 303 303 303 303 303 303 304 304 305 305 305 305 305 305 305 306 307 308 309 308 308 309 309 309 309 309 310 309 308 308 308 307 307 308 307 307 307 307 309 308 304 304 308 308 305 305 306 307 307 305 304 303 303 303 303 303 303 302 301 301 301 300 301 301 301 301 301 301 301 301 301 301 301 300 300 300
300 300 302 304 305 306 306 306 306 305 304 304 304 303 303 303 303 303 304 305 305 305 305 304 305 305 307 307 307 307 308 308 308 309 309 308 308 308 308 307 308 308 307 307 307 306 306 306 308 310 309 306 305 307 306 305 306 306 306 305 304 304 304 303 302 302 302 303 302 301 301 301 300 300 301 300 300 300 300 300 300 300 300 300 300 300 301
299 300 302 304 305 306 306 306 306 306 305 305 304 304 303 303 303 304 304 304 305 306 305 304 304 305 306 306 306 306 307 308 308 308 308 308 307 307 308 307 307 307 307 307 307 306 305 305 306 307 307 305 304 304 304 304 305 306 306 304 303 303 303 302 302 303 303 302 302 301 301 301 300 300 300 300 300 301 300 300 300 300 301 301 301 301 301
299 300 302 304 304 305 306 306 306 306 306 305 305 304 303 303 303 304 303 304 305 306 305 304 304 305 305 305 305 306 307 307 308 308 308 308 307 307 307 307 307 307 307 307 306 306 305 305 305 305 305 305 305 304 303 304 305 306 306 303 303 303 302 302 303 303 303 302 301 301 301 301 300 300 300 301 301 301 301 301 301 301 301 300 300 300 300
300 299 301 303 304 304 305 306 306 306 306 305 305 304 303 303 303 303 303 304 305 305 305 305 305 305 304 304 305 306 307 307 308 308 308 307 307 307 307 307 307 307 306 306 306 304 303 304 304 304 304 305 305 305 306 306 306 305 303 302 302 302 302 302 302 302 302 302 301 301 301 300 300 300 301 301 301 301 301 301 301 300 300 300 299 299 299
300 300 300 302 303 304 305 305 306 305 306 305 304 304 304 303 303 303 303 304 305 305 305 306 306 304 303 303 304 305 306 307 307 307 307 307 306 306 306 306 306 306 306 305 304 303 302 303 303 303 304 304 304 305 307 306 305 303 302 302 302 302 302 302 302 302 302 302 301 301 301 301 301 301 301 301 301 300 300 300 300 299 299 299 299 298 298
301 301 300 301 303 304 304 305 306 306 305 305 304 304 304 304 304 303 303 304 305 305 304 305 305 304 303 304 304 304 305 306 307 307 306 306 306 306 306 306 306 305 305 304 304 303 302 302 302 303 304 303 304 305 306 306 306 304 302 301 302 301 301 302 302 302 301 301 301 301 301 301 301 301 301 300 300 299 299 299 299 298 298 298 298 298 298
300 300 300 300 302 303 304 304 305 305 305 305 305 304 304 304 304 303 304 304 305 305 305 304 304 303 303 304 304 304 304 305 306 306 305 305 305 305 305 305 305 305 304 304 303 302 302 302 302 303 303 303 305 306 306 306 305 304 302 301 301 301 301 302 302 301 301 301 301 301 300 300 301 300 300 300 299 299 299 298 298 298 298 298 298 298 298
298 299 299 300 302 303 303 304 304 304 305 305 305 304 304 304 304 303 304 304 305 304 304 304 304 303 303 304 304 304 304 305 305 305 305 304 304 305 305 304 304 304 304 303 303 302 303 303 303 303 303 303 305 307 306 304 303 302 302 302 301 301 301 301 301 301 301 300 300 300 300 300 300 299 299 299 299 299 299 299 299 299 298 298 298 298 298
297 298 300 301 302 302 303 303 304 304 304 304 304 305 304 304 304 303 303 304 305 305 304 304 306 305 304 304 304 304 304 304 304 304 304 304 304 304 304 304 303 303 303 303 302 302 302 302 302 304 303 301 303 306 305 302 301 302 302 302 301 301 301 301 301 300 300 300 299 299 299 299 299 299 299 299 299 300 300 299 299 299 298 298 298 298 298
296 298 300 301 302 302 303 304 304 304 304 304 304 305 305 304 304 304 304 304 304 304 303 303 305 307 306 305 305 305 304 303 303 303 303 303 304 304 303 303 303 303 303 303 302 301 300 301 303 303 300 300 303 306 304 301 300 301 302 302 301 301 301 300 300 300 300 300 299 299 299 299 299 299 299 300 300 300 300 300 300 299 299 299 298 298 299
296 297 300 301 301 302 304 305 304 303 303 304 304 304 305 305 304 304 304 303 304 304 302 302 304 307 308 306 304 303 303 303 303 302 303 303 303 303 303 304 303 302 301 301 301 300 300 301 303 303 301 301 303 304 302 301 302 302 302 302 301 301 301 301 300 300 300 300 300 299 299 299 299 299 300 300 300 301 301 301 301 300 299 299 299 299 299
296 298 299 300 300 303 305 305 303 302 303 303 304 304 305 304 304 304 303 303 304 303 303 304 305 305 304 304 303 303 304 304 302 302 303 303 302 302 303 304 304 303 303 303 302 301 301 301 304 305 303 302 302 302 302 303 303 302 302 302 301 301 301 301 301 301 301 300 300 300 300 300 300 300 300 300 300 301 301 300 300 300 299 299 299 299 299
297 298 300 301 302 303 305 304 302 302 302 303 303 304 304 304 304 304 303 303 304 303 303 305 305 302 302 303 304 303 303 302 302 302 302 302 302 302 302 302 302 303 305 304 301 300 301 303 304 304 301 299 301 303 303 303 302 301 301 301 300 301 301 301 301 302 301 301 301 301 301 301 301 301 301 301 300 300 300 299 299 299 299 299 299 299 299
299 300 302 303 303 304 304 303 302 301 302 303 304 304 303 304 304 303 302 302 303 303 303 305 303 302 303 305 305 303 302 302 303 304 303 302 303 303 302 302 303 303 305 304 301 301 303 303 303 303 301 299 301 303 303 303 303 302 301 301 300 301 301 301 301 301 301 301 301 301 301 301 301 301 301 301 300 300 300 300 300 300 300 300 299 299 299
302 303 303 303 303 303 303 302 302 301 302 303 303 303 303 303 303 302 302 304 304 303 303 303 303 302 304 305 305 304 303 304 306 306 304 303 303 302 302 302 302 303 305 303 300 301 304 304 303 303 302 300 301 303 303 303 303 303 302 302 301 301 301 301 301 301 300 300 300 300 300 300 300 300 300 300 300 300 300 300 300 300 300 299 299 299 299
303 303 303 302 302 303 302 301 302 302 302 303 303 303 303 302 300 300 303 305 305 303 302 303 303 303 303 304 305 305 304 303 303 304 303 302 302 302 302 301 300 303 305 302 299 303 306 304 303 304 303 301 302 303 303 303 303 303 302 302 302 302 301 301 300 300 300 300 300 300 300 300 300 300 300 300 300 300 300 299 299 299 299 299 299 299 299
303 303 302 301 302 302 302 302 302 302 302 302 303 302 301 301 300 300 302 303 303 303 303 303 303 303 303 304 304 304 304 303 302 303 304 302 300 301 304 302 301 303 304 301 301 306 307 304 304 306 305 301 301 303 303 302 303 303 302 302 302 302 301 301 300 300 300 300 300 300 300 299 300 300 300 300 300 300 299 299 299 299 299 299 299 298 299
303 302 301 301 301 302 302 302 301 301 301 303 303 302 301 301 301 301 301 301 301 302 303 303 303 303 304 303 303 303 304 302 301 303 304 302 300 302 304 304 303 302 301 300 302 306 306 306 307 307 304 301 302 303 303 303 303 303 302 302 302 302 301 300 300 300 299 300 300 300 300 300 300 300 300 300 299 299 299 299 299 299 299 299 299 299 299
302 302 302 302 301 301 301 301 300 300 301 302 302 302 302 302 302 303 304 303 302 303 303 303 303 304 304 302 302 302 302 302 302 302 300 299 300 303 305 303 301 299 298 302 304 303 303 305 306 303 300 301 302 302 302 303 303 303 303 302 302 302 301 300 300 300 300 300 300 300 300 300 300 300 300 299 299 299 299 299 299 299 299 299 299 299 299
302 302 302 301 300 300 300 301 300 300 301 302 304 305 307 308 309 309 308 304 303 303 304 303 303 304 303 301 302 302 302 302 302 301 299 299 301 303 302 301 301 300 301 304 304 302 303 306 303 299 299 302 303 302 303 303 302 303 303 302 302 303 302 301 300 301 300 300 300 300 300 300 300 300 300 299 299 299 299 299 299 299 299 299 299 299 299
302 301 301 301 301 300 299 300 301 301 300 301 302 304 306 306 306 306 304 302 303 304 304 303 303 303 302 301 302 302 301 302 302 300 298 301 304 301 298 298 301 302 303 303 303 305 309 307 301 298 300 303 302 302 303 303 302 303 303 302 302 302 302 301 301 301 301 301 301 300 300 300 300 300 299 299 299 299 299 299 299 299 299 299 299 299 299
302 300 299 301 301 300 298 300 301 301 300 299 300 301 301 302 301 301 302 303 303 304 303 303 303 303 302 301 301 300 300 301 302 299 298 301 302 300 298 300 302 303 302 302 304 310 313 307 300 300 302 303 302 302 302 302 302 303 302 301 301 301 301 301 301 300 300 300 300 300 300 300 299 299 299 299 299 299 299 299 299 299 299 299 299 299 299
301 299 299 300 300 299 300 301 301 300 299 299 300 300 300 300 301 301 302 302 303 304 303 302 302 303 302 301 301 300 299 300 301 300 299 300 300 299 301 303 303 302 302 306 310 314 312 305 300 301 302 301 301 302 302 301 301 302 301 301 301 301 300 300 300 300 300 300 300 299 299 299 299 299 299 299 299 299 299 299 299 299 299 299 299 299 299
301 300 300 299 298 298 299 299 299 299 299 299 299 299 299 300 300 301 302 302 303 304 303 302 303 304 302 300 301 302 300 300 301 301 300 301 302 302 303 304 303 303 305 307 309 308 305 302 302 302 302 301 301 302 301 301 301 301 301 301 301 300 300 300 300 299 300 299 299 299 299 299 299 299 299 299 299 299 299 299 299 299 299 299 299 299 299
302 301 300 299 299 299 298 297 299 301 300 299 298 299 300 299 299 300 301 302 302 303 302 302 303 302 300 301 303 304 302 301 301 301 301 303 304 301 300 302 306 309 309 306 303 301 301 302 302 302 301 301 301 301 300 300 301 300 300 300 300 300 300 300 299 299 299 299 299 299 299 299 299 299 299 299 299 299 298 299 299 299 299 299 299 298 298
302 301 301 300 300 300 298 298 300 302 300 299 299 300 300 300 300 301 301 301 302 303 302 301 301 301 302 303 304 302 300 299 300 301 302 303 302 301 303 308 309 308 306 303 301 301 302 303 302 302 301 301 301 301 301 301 300 300 300 300 300 299 299 299 299 299 299 299 299 299 299 299 299 299 299 299 299 298 299 299 299 299 299 299 298 298 298
300 300 300 300 299 299 299 299 299 300 299 299 300 300 300 300 301 301 301 301 303 303 301 300 301 304 305 304 302 300 300 301 301 301 302 301 299 300 307 312 309 303 301 301 301 302 302 301 301 302 302 301 301 301 301 300 300 300 300 299 300 299 299 299 299 300 299 299 299 299 299 299 299 299 299 299 299 299 299 299 299 299 299 299 298 298 298
Wind_Speed
7 7 8 7 5 4 5 6 7 5 2 1 0 1 1 1 3 6 16 20 15 7 2 1 1 1 1 1 4 9 9 9 11 12 10 6 5 3 1 1 2 3 3 3 4 5 4 4 2 3 3 2 1 3 2 7 6 4 3 2 2 2 4 4 2 3 3 5 5 4 3 5 6 5 3 2 2 3 5 5 4 4 3 2 3 2 2
8 8 8 7 6 5 6 5 4 4 3 1 1 2 3 4 7 10 20 14 4 2 2 1 2 2 1 2 6 12 11 11 13 9 5 4 2 1 1 0 2 2 2 5 5 3 3 4 1 2 3 1 4 5 4 7 3 1 4 5 4 2 2 4 4 3 4 5 5 4 4 4 4 2 3 3 3 5 4 3 4 4 3 3 4 2 1
10 9 7 7 6 5 6 4 3 3 2 1 2 3 4 5 7 9 18 9 4 2 2 1 2 2 2 2 8 10 10 13 15 11 6 5 2 2 1 1 2 4 5 6 5 3 3 3 1 2 3 1 5 9 7 6 3 2 4 7 7 4 2 3 5 4 3 2 1 1 0 2 2 2 5 5 4 4 4 4 4 3 3 2 4 4 4
11 9 7 8 7 5 5 4 5 4 1 3 4 5 3 1 3 4 9 8 4 3 2 1 3 3 2 3 6 6 6 9 11 8 4 5 4 4 3 3 3 6 8 8 6 6 5 5 4 2 2 1 2 7 10 9 8 8 9 8 7 5 3 3 5 5 5 5 3 2 2 3 2 3 6 6 4 3 4 4 3 4 4 3 1 7 9
10 10 8 9 9 7 6 7 9 6 2 5 6 5 2 1 1 3 4 4 4 5 4 0 1 2 3 1 3 4 6 5 4 1 0 5 7 4 4 6 4 5 8 8 4 5 7 8 6 3 2 2 1 7 10 9 6 6 7 6 4 5 4 4 7 8 4 2 3 4 6 6 4 3 6 7 6 5 6 5 2 5 6 1 2 9 10
9 9 9 9 10 9 7 7 8 4 4 7 6 4 2 2 1 3 5 3 2 2 2 3 1 1 2 1 3 4 4 2 1 2 2 6 8 5 4 8 7 3 5 6 4 4 6 6 3 2 2 2 2 6 7 7 7 5 5 7 5 6 4 4 7 10 9 7 6 9 10 9 8 9 8 8 9 9 8 5 2 2 4 5 9 11 9
8 9 9 8 9 9 7 7 6 2 7 7 5 4 3 3 3 2 3 1 2 3 5 7 3 4 3 1 3 4 3 2 1 3 3 5 8 5 4 6 8 6 4 5 5 4 4 3 0 1 3 4 3 3 3 5 8 7 5 5 4 5 3 3 6 10 11 9 6 7 11 10 10 12 10 10 11 12 10 7 6 7 6 8 13 13 8
9 10 10 9 9 7 5 5 2 7 9 6 6 7 5 4 4 2 0 1 3 4 5 6 3 3 2 2 4 3 1 3 3 4 4 2 4 5 6 5 7 8 8 8 5 1 5 7 4 3 3 3 2 2 2 0 5 7 3 2 4 5 3 1 3 7 8 8 7 9 11 12 12 11 10 9 10 10 9 7 8 9 9 9 12 12 7
10 11 11 11 10 7 4 3 3 8 7 5 7 8 7 5 4 3 1 2 2 2 2 4 3 1 1 3 4 1 2 2 4 6 8 6 3 3 7 8 8 10 12 12 6 2 6 9 7 7 8 6 4 3 2 3 2 4 3 2 4 4 4 1 2 5 3 3 7 9 10 12 12 10 8 8 6 5 5 4 4 5 9 11 10 6 4
11 11 11 11 10 7 5 4 5 6 4 4 5 6 8 6 4 1 1 1 1 1 2 3 2 1 3 4 3 1 1 2 3 5 8 10 8 4 6 9 8 8 11 10 5 6 14 17 17 18 20 19 15 12 10 9 6 3 2 3 3 3 6 4 2 5 3 2 3 4 5 6 6 5 5 5 4 4 6 6 5 3 7 8 5 4 5
11 11 11 12 11 7 5 4 4 4 4 4 3 5 9 8 5 2 0 1 1 2 3 1 2 2 2 3 1 2 2 5 4 5 2 5 6 6 8 12 10 6 7 9 13 22 28 28 29 30 31 28 24 21 21 18 12 5 4 3 3 4 6 4 2 4 5 4 1 4 3 2 1 2 2 1 3 6 7 6 6 5 4 5 6 7 8
11 11 10 10 10 7 5 4 4 5 5 4 0 4 8 9 6 3 1 1 1 2 2 2 3 1 3 6 3 3 5 6 6 9 8 0 3 8 10 10 8 5 7 14 20 24 24 23 24 24 24 22 23 25 23 17 14 12 8 7 6 5 5 3 2 3 4 2 2 3 1 1 2 2 3 6 8 10 12 10 8 8 9 11 12 10 9
10 10 10 9 8 7 5 5 5 5 5 2 2 5 7 8 5 3 1 1 1 0 1 1 4 4 8 11 8 5 10 14 14 15 11 5 4 8 10 8 7 7 11 16 15 14 10 8 9 9 9 9 12 16 16 12 12 14 12 7 6 7 5 3 3 2 3 2 2 2 2 1 2 3 4 7 7 6 8 9 8 6 6 9 11 9 10
10 9 9 9 8 7 5 5 6 4 2 2 5 7 9 8 5 3 2 2 1 1 1 3 6 6 8 8 7 7 10 12 13 12 10 7 7 9 10 9 8 9 12 13 9 8 5 3 5 4 5 6 6 6 7 7 9 10 10 7 5 7 6 4 3 2 2 3 3 3 3 2 3 3 1 2 2 1 2 4 4 3 4 8 10 10 12
10 10 10 9 8 7 6 4 4 2 3 5 8 11 10 8 5 3 3 2 2 3 5 3 2 3 5 5 5 6 6 6 7 7 7 7 8 9 9 7 6 6 8 7 5 5 3 3 4 3 3 3 2 2 3 4 5 7 8 7 6 6 4 5 4 1 2 4 3 3 2 2 3 3 1 1 1 2 2 3 3 2 6 12 12 11 13
11 10 10 10 8 7 5 2 1 4 7 9 10 10 7 3 2 0 1 1 3 3 6 5 2 1 4 6 6 7 4 2 3 3 5 6 6 7 8 6 4 4 5 5 5 4 4 4 3 3 1 1 2 0 1 2 3 5 6 8 10 9 5 5 6 3 2 4 3 3 2 2 2 2 2 1 1 4 3 2 2 3 8 14 15 14 15
10 10 11 11 8 5 3 2 4 6 9 11 9 5 1 1 3 5 5 6 6 4 6 6 2 3 4 5 5 5 4 4 4 4 3 2 2 4 6 7 6 6 5 5 4 4 5 3 3 3 1 2 2 2 1 2 2 4 7 8 9 8 5 4 5 4 3 4 3 1 1 1 1 1 2 2 2 3 3 1 2 3 9 15 18 18 18
10 10 11 9 5 3 3 5 6 7 9 8 4 3 4 5 7 7 6 7 6 6 10 9 6 5 6 4 3 2 3 4 5 4 3 1 2 3 5 5 5 5 5 4 2 3 4 2 2 4 1 2 1 2 1 2 2 2 3 3 4 4 4 3 4 4 4 4 2 0 1 1 1 1 3 2 1 2 1 2 4 8 11 16 19 19 19
9 9 10 8 4 6 8 9 11 11 9 6 7 10 10 11 12 12 12 12 10 8 11 14 13 13 10 7 6 5 4 4 6 5 2 2 2 3 5 5 4 2 3 4 3 2 3 1 0 3 3 1 1 2 2 2 1 1 1 2 2 2 2 2 2 3 3 3 2 1 1 1 1 3 3 1 1 2 2 4 9 14 16 17 18 19 18
8 9 10 8 7 10 12 13 13 12 9 10 12 14 14 15 16 16 15 16 16 15 16 17 18 17 14 12 10 7 3 4 6 5 3 2 0 2 4 4 3 3 4 4 3 2 3 2 1 1 2 1 1 3 3 2 1 0 1 1 1 2 2 1 1 2 2 3 3 2 2 2 1 1 1 1 0 4 9 13 13 15 18 19 18 18 17
7 8 10 9 9 11 13 13 13 12 11 12 14 15 15 14 14 15 15 15 15 13 14 17 19 19 17 16 14 11 7 6 5 5 6 5 3 3 3 2 1 1 1 3 3 1 2 3 1 1 3 2 1 2 3 3 2 1 1 2 1 2 1 2 2 2 1 2 2 2 1 2 2 1 1 2 6 13 19 18 15 15 18 19 19 17 15
7 8 9 10 9 10 11 12 13 12 11 12 13 13 14 13 13 15 17 18 17 14 13 17 19 19 18 17 16 14 11 8 6 6 8 7 6 5 5 4 3 3 2 3 4 2 2 3 2 2 3 2 2 3 3 3 1 2 2 2 1 1 3 4 3 2 3 3 2 2 3 4 3 4 7 11 15 17 17 18 18 18 17 19 19 19 16
6 7 9 10 10 10 11 12 12 12 12 13 13 14 15 16 17 19 20 20 20 18 16 16 16 16 17 17 15 14 12 10 7 4 4 5 5 6 5 4 4 4 2 3 5 4 3 3 3 3 3 2 3 4 2 2 2 1 1 2 2 4 6 5 4 5 5 6 6 5 7 9 10 12 13 15 16 15 14 17 19 18 17 18 20 21 21
6 7 8 10 10 11 11 12 11 11 11 12 13 14 15 16 15 16 16 15 15 14 13 15 16 13 12 14 14 13 12 12 9 6 3 1 1 2 4 4 3 4 6 8 9 10 8 4 2 3 3 1 2 3 2 2 2 2 3 4 1 1 4 5 3 4 3 3 4 5 7 10 12 13 14 14 14 14 15 18 19 19 19 20 21 23 24
5 6 8 9 10 10 11 11 11 10 9 10 12 12 12 11 10 8 8 9 11 10 7 10 15 13 9 11 14 13 13 12 10 8 6 5 3 4 7 7 6 8 12 13 13 13 11 5 2 4 3 0 1 2 1 2 2 3 3 3 1 2 6 6 3 3 4 5 6 9 11 11 11 12 14 15 16 16 18 20 21 22 22 22 22 22 22
4 5 7 8 9 9 10 10 10 9 8 8 8 7 8 9 8 8 9 11 14 13 7 5 11 15 14 13 14 13 13 12 10 10 11 12 11 10 12 13 13 14 16 16 15 15 12 5 3 4 2 1 3 3 1 2 4 2 1 1 3 6 5 4 5 6 6 7 9 11 12 11 9 12 15 17 19 21 21 22 23 23 23 23 21 19 18
3 4 5 7 8 9 9 9 9 9 7 6 6 5 6 8 10 10 10 8 8 8 5 2 9 16 18 16 13 12 12 11 9 11 14 15 14 14 14 14 15 17 17 16 15 15 12 6 4 4 3 5 7 5 2 4 5 4 3 2 4 5 4 4 7 6 2 4 9 10 8 7 8 14 19 20 22 24 24 23 23 23 22 22 21 20 20
2 3 4 5 6 7 8 8 8 8 7 6 5 4 4 7 8 7 6 4 4 8 8 6 8 11 14 16 14 12 11 10 9 11 13 14 14 14 13 13 15 17 18 16 13 10 7 5 4 3 4 7 7 4 2 4 4 3 1 2 0 5 8 7 5 3 5 12 16 12 11 13 15 19 22 22 22 24 24 23 22 22 21 22 23 23 22
1 2 3 3 5 5 5 6 6 6 6 5 5 4 4 6 7 6 6 7 12 15 15 13 12 9 9 13 15 14 12 11 10 13 15 15 15 15 14 15 18 21 22 21 16 11 7 7 6 5 5 5 4 2 2 3 3 2 3 3 3 10 11 8 6 8 13 18 19 17 20 22 22 22 23 22 21 23 24 22 21 21 21 21 22 22 22
1 1 2 2 3 4 3 3 3 4 5 5 4 4 5 6 6 5 7 10 12 13 14 12 8 7 9 14 18 19 17 15 14 17 18 18 19 19 18 20 22 23 23 22 18 11 7 7 8 8 7 6 4 2 2 2 2 2 4 4 9 13 11 9 12 18 21 21 21 23 27 27 24 23 22 21 21 23 24 23 22 22 22 21 21 21 20
3 3 3 3 2 2 2 2 2 2 2 3 2 3 4 4 5 7 9 9 10 13 16 13 6 5 8 13 16 19 20 20 20 21 21 21 21 21 21 22 23 23 23 21 17 10 6 6 5 6 8 8 6 3 2 4 3 2 4 7 12 14 15 16 19 23 25 26 27 28 27 26 25 23 21 21 23 24 24 24 23 22 21 20 19 19 18
4 5 4 4 3 1 2 1 1 1 1 2 3 4 4 5 6 8 8 8 9 12 13 10 5 2 3 6 10 14 18 20 21 21 20 19 19 20 21 22 22 20 18 16 12 8 6 6 8 9 10 9 6 3 3 4 3 3 7 13 15 17 20 22 24 25 26 29 31 28 23 21 24 25 24 25 25 24 23 23 21 20 19 18 17 17 16
5 6 6 6 4 2 1 1 1 1 2 4 6 7 7 7 8 8 8 9 9 9 8 6 3 1 1 3 7 10 12 14 16 17 15 13 15 18 18 17 16 15 13 10 7 5 6 8 10 10 11 10 7 4 3 4 3 9 15 18 19 20 24 25 26 26 26 28 30 29 25 23 26 27 26 25 24 22 20 19 18 17 17 16 16 15 14
5 6 7 8 6 4 2 2 2 3 5 7 8 8 7 7 8 8 7 7 7 8 7 5 3 2 1 2 4 6 8 9 11 11 9 9 12 14 12 11 10 10 11 10 7 6 6 8 8 7 6 7 7 4 2 1 5 14 20 20 21 24 25 25 26 27 26 26 27 29 28 28 28 26 25 23 21 20 18 17 16 16 15 15 14 13 12
5 7 9 9 7 5 4 3 3 6 8 8 8 8 7 6 7 7 6 5 5 5 4 4 4 3 2 2 3 4 6 8 8 8 7 7 10 10 9 8 8 7 7 7 6 5 5 6 5 3 3 5 4 2 2 4 10 18 22 22 23 25 25 25 27 27 25 24 25 27 27 27 27 25 23 21 19 18 16 15 14 13 13 12 12 10 10
6 8 10 10 8 6 4 4 5 7 8 8 8 9 8 7 6 6 5 4 4 4 3 4 4 3 3 2 1 2 5 7 7 7 6 6 7 8 8 7 5 4 5 6 5 4 4 5 4 2 2 3 2 4 9 15 19 21 23 25 25 26 26 26 27 26 24 24 25 25 25 25 24 23 21 19 17 16 14 13 12 11 11 11 10 9 8
6 8 10 10 8 6 4 3 4 6 8 8 8 9 9 7 6 6 4 3 4 4 5 5 3 2 4 3 1 2 3 3 3 5 5 4 4 6 8 6 2 2 5 5 4 4 4 5 4 3 1 2 3 11 19 23 24 24 26 27 26 25 25 26 26 25 23 22 23 23 22 22 21 20 19 18 16 15 14 13 12 11 10 9 9 8 7
7 9 10 10 8 6 4 3 4 7 9 9 7 7 6 5 5 4 3 3 3 4 5 5 4 3 4 4 3 3 2 2 2 4 4 4 3 4 5 4 2 2 3 2 3 4 5 4 4 3 1 1 7 19 24 25 25 25 26 27 26 25 24 24 24 24 22 21 21 22 21 20 19 19 18 17 16 15 14 13 12 10 7 6 6 6 5
8 8 9 8 6 5 4 4 5 7 9 8 5 3 2 3 3 2 2 3 3 3 3 4 4 4 4 4 4 4 4 3 4 3 2 3 3 1 2 2 2 3 3 0 1 3 3 3 3 3 2 1 8 21 25 24 24 25 24 24 25 24 24 23 23 22 22 21 20 21 20 19 19 19 19 18 16 14 12 11 9 8 6 5 5 4 3
7 6 6 6 5 5 5 6 6 6 7 6 3 2 2 3 2 1 1 2 2 1 2 4 4 5 6 6 5 5 4 4 4 4 3 3 3 3 2 2 1 3 3 1 2 2 3 1 2 2 1 3 11 22 25 24 23 24 23 23 24 23 23 22 21 20 19 18 17 18 18 18 18 18 18 17 15 14 12 11 9 9 8 7 6 4 2
5 5 5 5 5 6 7 7 6 5 5 3 2 2 1 2 2 1 3 2 1 1 3 5 5 4 5 7 7 5 4 4 5 7 5 3 3 4 3 1 1 3 1 2 2 2 4 2 1 0 4 9 17 24 25 24 23 23 23 23 23 23 22 21 20 19 18 17 17 17 17 16 15 15 16 15 15 15 14 13 13 11 9 7 4 3 1
5 5 5 5 6 7 7 5 4 3 2 2 2 1 1 1 1 1 1 1 1 2 3 4 5 6 7 7 7 6 6 5 4 4 3 1 2 4 2 1 1 2 1 3 2 4 4 2 0 3 7 15 21 24 26 25 24 24 23 23 23 24 23 21 20 19 18 18 17 16 15 13 12 13 14 16 16 16 15 13 12 11 8 5 3 2 2
5 5 5 5 6 6 4 2 1 1 1 2 1 1 1 1 1 0 1 1 2 4 4 5 7 9 8 6 5 6 6 5 3 3 3 2 2 3 3 2 2 2 2 2 3 3 2 3 3 5 12 20 23 25 26 26 25 24 24 23 23 24 23 22 21 20 20 20 18 16 15 13 11 12 15 16 16 15 13 11 10 9 7 5 3 4 5
6 6 6 5 4 4 3 1 0 1 1 0 1 2 1 1 1 0 1 2 4 5 6 9 12 10 6 4 5 5 4 4 3 4 3 2 2 2 2 0 1 1 2 2 2 1 2 4 4 7 16 23 25 25 26 26 26 26 26 25 24 25 24 23 22 21 20 20 19 18 16 13 12 14 16 16 13 12 12 12 11 9 7 6 5 6 6
6 5 5 3 0 1 2 1 1 0 2 2 2 3 3 3 3 3 3 5 6 7 10 14 16 13 7 5 5 3 2 3 3 2 1 2 2 2 1 2 1 2 2 1 1 0 2 4 4 10 19 26 27 27 26 26 27 27 27 26 26 26 25 25 23 21 19 19 19 19 18 15 15 17 17 15 13 12 12 12 11 8 7 7 6 6 6
5 4 4 2 1 0 1 1 1 0 2 3 4 5 5 5 4 4 4 5 8 11 14 17 17 14 9 5 4 3 2 3 3 1 1 2 2 0 1 2 2 2 2 1 1 3 4 5 8 17 26 30 30 28 27 27 28 28 28 27 26 25 25 25 23 21 19 18 18 18 18 17 18 18 17 14 14 12 10 10 10 8 7 6 5 5 4
4 3 3 2 0 0 1 1 2 2 2 2 4 4 4 3 3 3 4 5 9 14 17 16 15 13 8 5 4 2 2 3 2 1 1 2 2 0 1 2 1 1 2 2 4 5 4 6 14 24 30 31 30 30 29 28 29 29 28 27 26 24 24 23 22 21 20 19 19 19 19 19 18 17 16 15 14 13 10 10 10 9 7 6 5 5 4
4 3 2 1 1 2 2 3 3 3 3 3 2 2 3 4 4 4 4 5 10 17 19 16 13 9 5 4 3 2 2 3 3 0 0 2 2 1 2 1 1 2 2 4 5 4 4 9 17 26 30 31 31 31 30 29 29 28 27 26 25 25 25 24 23 23 22 21 20 20 19 17 16 16 15 15 14 13 11 11 11 10 8 7 6 5 5
4 3 2 1 1 2 2 2 2 2 4 5 5 5 6 7 7 5 4 6 12 18 18 15 11 7 1 2 2 2 1 2 2 1 1 2 2 1 1 1 2 3 3 3 4 5 7 11 18 26 31 33 33 32 31 30 29 27 26 26 26 27 26 26 25 24 22 20 19 18 16 16 16 16 15 15 13 12 12 12 12 11 9 7 6 6 6
4 3 3 2 2 2 2 2 1 1 2 3 4 6 8 10 11 9 6 8 14 18 15 10 7 5 2 2 3 2 1 1 2 2 1 1 2 2 2 2 3 4 4 5 6 8 9 12 19 29 35 36 35 34 33 31 28 27 27 27 27 27 26 25 23 22 19 17 16 15 16 16 16 16 15 14 12 11 12 13 12 11 9 8 6 6 6
3 4 4 4 5 4 3 3 2 3 4 4 4 5 7 11 14 13 10 11 15 15 9 5 4 4 3 2 1 1 1 2 3 2 1 2 2 3 3 4 6 6 5 6 8 10 11 13 20 30 37 39 37 35 33 30 28 27 27 27 27 26 25 23 21 19 18 16 15 15 14 15 15 15 14 13 11 10 11 12 12 11 10 9 7 6 5
4 3 3 5 7 8 6 5 5 6 7 7 7 7 7 11 15 15 14 15 16 13 8 5 4 4 2 1 2 2 2 2 2 0 2 3 3 4 5 5 5 6 6 6 7 10 12 14 19 27 34 38 39 36 32 29 27 27 27 27 27 25 23 22 21 19 18 17 15 13 12 13 14 15 15 14 13 11 11 11 12 12 11 9 7 6 5
Wind_Direction
343 333 324 316 305 303 308 302 300 311 354 106 272 336 278 178 70 111 142 144 140 135 87 15 134 182 261 313 268 245 252 275 278 284 288 262 223 209 178 159 129 127 159 137 117 118 85 48 90 124 107 115 358 316 168 135 113 100 130 181 163 110 82 92 55 330 301 303 322 339 10 67 70 45 38 78 90 114 136 166 161 121 134 132 86 108 183
339 329 326 326 315 301 301 296 303 330 358 30 37 48 105 104 72 121 147 141 72 71 138 125 173 214 348 1 271 257 259 268 267 272 287 274 246 107 68 71 114 131 140 114 119 141 96 52 26 95 112 122 15 26 122 141 108 93 174 177 168 145 93 102 94 20 352 347 345 350 11 41 64 33 349 5 70 90 110 119 84 101 171 146 116 146 169
335 331 337 344 334 317 308 294 288 313 329 89 97 91 117 105 74 129 164 172 360 28 151 182 162 117 44 291 262 263 264 261 256 252 263 289 294 100 53 342 90 88 89 90 72 64 89 97 119 86 83 56 16 36 67 107 97 84 141 142 134 124 107 111 123 135 152 168 252 246 144 42 48 31 360 9 47 77 119 122 79 111 175 105 113 151 135
343 346 356 2 355 339 332 330 327 320 260 146 122 113 120 122 67 120 181 214 277 301 284 237 148 121 103 258 259 252 258 270 266 248 247 321 356 74 45 4 53 70 78 82 52 37 60 90 121 124 78 103 349 31 60 82 91 93 96 101 107 100 71 69 101 124 163 183 204 210 134 89 53 1 3 12 14 31 97 109 107 153 145 41 94 153 136
1 6 10 11 7 3 11 10 348 329 167 131 113 109 102 3 102 127 172 221 245 272 283 300 97 133 154 214 279 252 252 275 297 289 257 354 9 49 38 19 49 84 94 96 55 34 57 70 92 101 79 124 61 37 57 63 67 93 81 57 81 97 59 32 60 63 59 109 95 66 75 81 73 42 20 23 27 39 73 88 109 141 128 69 177 144 132
15 14 11 14 13 10 16 9 345 335 138 126 104 95 106 77 80 150 166 179 200 245 235 151 126 284 193 235 308 289 287 294 321 328 354 7 10 45 41 13 20 62 104 115 105 76 67 50 65 94 64 91 63 29 34 32 40 81 63 35 79 105 55 21 71 65 45 46 65 76 85 83 69 62 47 35 40 52 70 78 66 99 133 162 153 133 122
17 12 10 13 9 4 2 354 344 103 130 117 89 70 76 68 50 115 159 161 138 132 127 138 178 259 233 252 292 267 291 352 4 330 13 18 4 41 66 2 7 27 51 96 112 124 118 87 74 136 73 69 81 57 28 23 38 64 66 41 69 99 65 45 85 76 50 33 39 71 88 89 71 61 58 57 61 66 71 78 78 74 85 120 123 113 100
14 8 7 6 5 3 2 358 22 139 126 98 88 77 58 43 27 27 26 22 90 108 105 125 163 261 228 227 269 247 282 31 36 8 36 54 350 33 81 62 46 54 57 72 80 168 145 124 141 168 121 87 95 110 168 130 34 39 53 35 37 78 123 177 75 75 52 34 48 66 79 86 74 56 52 61 67 67 68 78 84 78 78 92 102 102 93
8 6 6 7 11 17 25 40 113 137 123 100 94 68 40 39 33 9 347 15 61 103 104 116 129 295 224 217 263 282 71 81 94 47 29 50 50 62 105 96 67 60 62 62 53 35 93 101 115 131 118 105 106 107 150 172 88 37 40 39 31 73 122 169 63 84 69 51 82 85 82 82 69 45 36 45 52 60 60 54 63 105 122 118 109 106 116
11 14 16 16 22 34 57 99 132 138 128 115 93 39 18 46 66 2 240 2 348 141 101 91 120 233 208 209 261 340 357 313 83 70 22 27 48 73 113 98 75 62 58 46 38 89 95 95 98 99 94 86 85 82 71 69 82 103 98 56 28 90 125 136 104 99 122 176 114 77 68 73 61 32 29 38 51 75 67 38 24 73 134 137 133 139 140
24 28 28 26 34 50 79 105 111 105 97 100 78 8 8 37 49 349 53 73 311 104 98 136 209 230 216 195 246 32 35 338 8 101 79 357 36 66 85 89 84 66 65 81 96 98 96 94 91 89 84 77 71 66 59 52 47 62 125 104 51 78 109 125 109 104 144 189 349 29 50 84 57 330 329 23 75 87 81 57 36 46 83 104 102 114 125
34 35 34 36 47 65 87 86 70 74 95 116 186 337 2 22 24 5 64 120 3 75 114 238 240 201 121 112 87 37 61 48 56 103 123 100 26 53 59 75 86 80 105 118 110 98 91 87 84 79 71 66 63 56 50 42 27 31 70 112 118 100 95 101 79 91 133 153 49 66 150 220 17 20 66 99 103 97 88 72 56 68 93 102 102 109 119
37 37 39 45 58 75 86 87 88 93 103 118 301 324 342 354 359 341 248 146 40 80 174 24 30 74 101 96 86 74 79 77 77 88 95 84 50 46 44 56 78 98 132 139 121 99 87 71 66 60 38 36 49 45 39 34 26 28 41 68 110 118 112 98 70 73 114 93 54 110 168 162 88 82 90 106 111 106 89 68 51 61 93 107 109 113 117
38 38 45 55 68 83 87 95 113 124 127 320 322 324 325 328 328 295 247 143 90 314 136 73 36 43 73 81 86 84 73 68 71 72 66 60 56 47 48 62 77 99 135 145 112 77 80 56 41 34 359 6 31 26 16 26 33 33 29 25 68 111 123 109 65 44 119 103 82 106 128 169 159 136 128 128 131 168 117 83 63 67 109 123 120 120 126
40 43 54 65 77 91 99 111 136 179 293 315 318 316 317 320 317 291 258 181 121 43 40 46 328 343 40 62 89 94 71 50 60 59 47 57 65 57 52 58 66 94 128 130 80 48 69 84 72 52 11 30 64 12 344 360 14 33 39 33 47 72 112 137 118 70 104 102 100 116 141 219 182 144 159 146 148 205 182 115 87 99 137 140 133 133 138
44 49 62 73 84 97 105 93 354 321 316 317 319 320 321 329 351 81 162 126 114 53 3 353 331 89 78 73 80 92 97 85 72 54 30 32 51 67 67 59 62 99 107 86 67 62 67 77 108 119 108 171 176 126 22 13 345 354 17 40 53 52 52 96 101 95 110 109 118 155 191 223 160 155 207 281 249 220 191 132 120 146 154 151 144 142 149
47 56 70 79 86 101 100 6 333 318 314 317 325 331 314 114 96 105 98 82 90 69 17 17 78 116 91 75 62 62 75 90 100 98 76 13 351 49 66 67 74 82 79 63 48 57 70 77 100 99 100 228 160 118 111 85 32 335 340 15 41 39 23 53 88 110 118 104 107 155 202 210 144 192 254 294 282 214 170 170 204 167 165 163 154 152 159
49 60 74 84 89 70 29 359 339 332 332 339 10 100 122 107 98 96 85 85 90 54 38 54 79 78 71 81 93 93 87 87 91 90 78 8 337 19 44 63 71 62 62 74 68 64 78 88 103 107 130 277 73 104 142 104 72 333 329 15 37 27 18 54 106 112 92 89 109 130 288 202 176 283 298 306 243 174 170 219 178 149 159 168 161 157 161
52 59 69 81 71 26 15 4 356 1 12 46 92 102 96 89 90 86 77 81 87 69 57 66 72 70 69 73 87 101 109 105 106 102 75 21 5 37 53 58 62 49 54 74 89 91 90 80 192 126 114 353 25 102 105 82 52 321 39 69 62 51 36 32 76 95 82 83 104 102 278 230 256 316 311 76 127 204 192 145 144 145 153 165 163 159 160
54 56 60 64 43 21 12 6 10 25 57 88 94 93 90 87 86 85 82 83 84 76 66 67 70 71 69 64 68 78 92 107 113 118 121 125 83 49 60 48 35 33 45 65 80 97 112 126 237 112 106 96 105 112 102 79 58 71 124 118 73 85 91 73 89 110 90 68 81 125 206 249 330 345 303 358 108 169 142 126 132 146 152 156 159 158 162
54 53 55 53 36 21 14 15 29 50 77 90 91 92 91 85 83 86 87 86 82 75 68 70 70 67 64 61 60 61 69 91 114 130 125 111 56 50 120 175 207 52 79 109 103 93 137 145 170 89 104 111 86 102 118 111 69 5 146 138 92 48 103 185 198 188 136 121 166 195 222 310 298 224 178 101 129 145 141 132 134 146 151 156 156 154 162
55 51 53 50 35 24 23 31 47 65 83 90 90 90 89 88 91 95 93 87 84 84 80 77 72 67 64 63 60 59 63 73 92 121 127 108 68 72 121 141 101 94 140 127 110 122 150 128 125 113 101 84 80 98 107 114 121 303 337 58 51 64 113 126 122 119 117 113 143 152 82 65 100 134 123 120 131 144 147 141 139 143 150 157 154 149 155
59 53 53 49 38 34 40 46 56 72 88 94 92 91 94 97 99 100 99 94 91 88 83 82 81 75 68 66 66 65 63 68 76 95 132 123 89 80 95 94 80 89 107 105 117 141 141 127 135 130 109 99 108 104 79 81 121 150 38 70 104 119 114 104 100 117 103 69 66 88 86 81 96 112 119 126 134 142 144 137 135 139 147 151 148 146 149
64 57 55 49 42 48 56 56 61 77 91 96 97 98 98 98 98 99 101 100 95 89 79 70 65 57 53 61 71 71 64 60 58 46 33 89 113 102 100 95 99 107 100 106 121 121 110 110 119 101 101 131 117 109 99 93 123 163 123 107 114 127 106 97 106 139 130 67 65 88 87 88 98 110 120 129 133 135 134 129 129 134 138 140 140 142 143
69 62 60 53 49 59 66 60 63 78 90 98 101 101 97 92 86 86 98 99 93 93 87 55 48 49 64 74 72 68 63 56 48 40 39 39 60 122 121 106 105 114 111 116 125 114 96 87 95 97 106 176 89 102 124 119 151 179 144 105 102 130 115 105 93 97 102 107 112 101 91 92 104 115 126 131 128 127 127 124 125 130 132 134 137 138 137
74 68 68 60 56 69 76 67 63 72 82 91 97 97 95 93 86 86 100 100 88 84 90 61 52 64 80 80 66 60 64 67 63 64 72 73 75 91 104 101 104 113 112 111 110 98 84 78 86 88 88 89 94 104 136 110 115 112 67 97 140 132 121 112 112 108 96 104 123 117 97 86 99 120 129 130 127 126 125 124 126 129 130 131 132 131 129
81 76 79 70 64 75 85 79 70 71 76 87 97 96 96 104 107 101 95 89 77 74 80 67 61 66 69 67 61 61 69 78 81 79 81 84 82 81 86 95 107 113 108 98 89 81 77 76 71 71 89 96 90 84 91 102 99 83 72 106 122 117 116 122 125 128 135 147 153 147 120 105 129 136 131 129 128 128 128 128 129 129 129 129 129 128 127
97 87 92 82 70 77 91 92 83 77 80 91 98 92 98 111 111 92 58 49 103 116 112 93 73 69 63 57 58 64 68 73 86 96 98 100 97 89 86 96 106 106 99 91 81 69 67 77 85 87 100 98 86 67 68 82 74 65 21 316 149 144 159 163 142 121 150 159 161 153 130 131 142 139 133 131 132 129 126 128 129 128 128 128 128 128 129
120 104 118 104 75 71 91 104 96 87 91 96 89 83 105 107 88 59 54 94 116 116 104 85 72 66 56 53 63 74 76 72 87 109 114 110 102 95 93 97 99 98 95 91 87 78 72 81 85 74 70 86 101 94 64 64 56 23 336 331 138 151 161 167 138 115 131 150 156 144 131 133 138 136 133 133 131 128 126 128 130 129 129 130 129 130 131
197 162 170 145 89 69 84 114 121 109 105 105 99 95 99 90 77 80 103 115 119 113 100 88 80 74 65 64 72 84 91 94 102 111 111 105 99 97 98 99 97 97 95 91 87 81 69 68 72 67 61 72 98 112 98 104 102 7 8 77 129 141 145 145 142 137 139 145 145 136 132 133 133 133 133 132 131 130 130 131 132 132 131 132 132 131 131
231 227 215 188 135 71 72 116 152 146 108 94 96 100 90 78 90 112 116 119 124 115 102 93 90 88 72 65 70 82 92 101 107 106 101 97 96 98 100 97 94 92 89 83 78 72 58 52 60 63 60 64 77 93 109 113 104 16 31 99 123 126 122 125 134 136 136 139 137 133 131 132 134 135 135 133 133 133 132 132 133 133 133 134 135 135 135
235 230 216 199 184 99 65 103 199 266 1 39 78 104 114 113 115 118 120 123 124 115 104 92 82 70 53 53 63 78 92 102 106 102 96 93 95 97 96 92 88 82 77 74 68 53 44 57 66 63 60 64 77 89 69 71 95 124 114 113 116 118 120 126 130 131 135 139 137 131 130 136 139 138 136 136 137 137 135 136 137 135 136 139 139 141 143
223 216 203 194 188 152 96 277 282 347 52 82 104 117 126 133 130 126 130 134 121 101 89 86 85 72 17 56 68 78 90 97 97 92 87 89 96 97 90 83 78 71 62 61 61 54 61 73 74 69 64 63 72 84 53 39 93 125 121 118 121 124 125 128 131 133 138 142 139 134 136 141 140 137 137 140 141 140 140 140 141 141 144 146 146 147 149
207 197 188 186 180 159 163 232 223 146 124 112 112 118 129 142 140 131 133 141 124 92 76 76 85 78 20 34 57 69 79 85 84 80 76 83 96 98 85 67 63 61 56 56 63 68 64 63 66 69 56 43 49 68 61 44 116 123 122 123 129 130 130 132 135 137 139 140 138 135 135 138 140 141 143 144 144 145 146 146 147 149 151 151 153 154 153
194 184 179 180 175 160 161 182 172 155 142 122 110 113 128 144 142 134 137 140 120 93 71 66 80 91 69 34 21 46 69 75 74 78 85 85 83 84 78 62 55 51 49 53 59 56 45 47 57 54 3 1 25 60 177 168 141 130 129 132 137 138 138 139 141 143 142 141 139 137 138 141 145 146 147 149 151 152 154 154 156 159 160 158 159 159 156
182 176 173 174 172 162 150 147 157 158 149 131 114 112 123 137 136 133 140 133 99 91 95 87 86 113 127 112 40 61 82 77 66 73 89 87 67 61 67 71 63 42 43 51 49 40 42 51 55 34 353 9 58 158 166 157 147 142 141 144 146 146 146 146 148 149 148 145 144 145 148 150 152 153 154 157 158 159 162 165 166 167 166 164 164 163 162
169 167 166 166 169 166 147 132 151 159 153 142 125 115 119 129 128 127 133 114 80 91 111 111 106 135 141 136 126 71 84 77 54 56 60 56 54 55 58 66 72 38 41 39 22 29 50 59 65 72 20 10 140 159 159 154 152 152 151 151 152 152 151 152 153 153 152 150 152 156 157 159 161 162 164 165 166 167 165 160 154 153 155 160 167 172 175
157 159 160 162 163 161 150 146 152 155 154 149 133 118 119 123 119 113 106 96 102 113 114 117 130 142 130 117 98 91 101 85 60 60 49 43 53 46 42 53 70 49 41 1 341 27 49 42 54 79 15 340 151 158 160 158 158 158 156 155 156 155 155 158 160 161 161 162 165 168 170 171 172 172 171 171 171 169 164 159 158 160 162 168 179 190 201
151 152 157 161 161 156 160 162 153 150 154 153 138 117 107 107 114 110 51 58 100 117 104 115 141 144 129 112 96 108 124 104 66 60 52 51 63 54 36 60 66 57 62 16 327 49 56 6 17 70 23 325 163 165 168 165 163 164 164 161 158 157 160 163 164 165 166 167 169 171 172 170 172 174 176 177 177 175 174 179 184 187 186 180 176 181 204
154 152 154 163 163 155 160 165 156 148 153 152 133 87 58 65 84 133 58 54 60 99 116 130 139 135 138 142 129 116 125 123 109 119 117 76 78 107 105 92 83 68 61 323 282 84 89 30 31 90 147 217 181 175 175 172 169 169 170 169 166 165 167 168 168 167 167 167 169 171 170 168 170 173 175 177 180 181 181 181 180 178 172 161 147 136 158
159 155 155 160 159 152 154 159 156 150 149 135 95 58 53 46 24 47 80 75 352 248 141 137 136 132 144 150 140 123 125 129 122 121 113 64 60 96 101 106 115 83 59 248 220 101 85 77 51 13 211 193 182 181 182 180 176 174 175 176 175 174 174 174 173 173 173 173 173 174 174 176 179 182 182 183 182 178 172 167 164 163 160 152 134 113 127
166 165 162 159 153 151 151 148 140 137 136 117 83 14 340 345 343 14 93 153 204 169 138 140 143 139 137 137 134 132 135 131 117 113 107 65 75 100 98 29 67 76 177 208 157 74 62 91 53 270 212 186 181 185 188 186 182 180 180 182 182 179 178 177 177 178 182 184 182 179 178 179 181 184 186 183 176 170 167 164 161 161 160 154 140 146 179
158 156 154 152 148 146 145 133 110 100 79 75 79 15 331 340 346 319 276 219 164 140 132 140 142 137 130 125 122 124 130 132 112 90 95 112 118 92 67 37 53 101 158 155 95 63 94 173 212 220 192 182 184 190 191 189 188 186 185 187 188 185 181 178 176 177 182 187 190 190 189 187 183 180 178 175 170 169 170 168 166 169 170 161 158 185 201
156 151 148 150 148 140 144 164 176 153 171 163 140 148 182 263 279 261 200 188 173 159 158 161 156 148 136 119 112 113 128 136 111 77 84 110 92 67 71 103 224 153 126 95 55 64 203 223 235 201 181 180 187 192 192 192 193 191 190 192 194 192 189 185 182 182 185 189 194 196 198 198 192 182 178 177 177 177 175 171 170 170 166 160 173 198 206
165 159 147 139 81 130 158 201 287 184 193 206 168 148 164 190 207 203 185 179 173 166 167 168 161 148 130 119 125 127 128 121 102 74 105 112 64 44 136 179 140 82 87 69 33 194 242 264 234 187 180 184 188 191 192 194 194 194 194 196 197 199 198 194 191 191 193 196 199 203 207 207 197 185 180 181 184 182 178 176 176 171 164 166 182 198 205
178 176 148 128 326 248 146 136 337 213 195 200 189 177 177 186 196 189 177 178 178 172 168 167 159 146 130 120 128 127 108 107 99 42 40 102 90 34 185 139 86 58 55 40 235 221 242 248 208 186 184 187 189 190 192 194 194 195 196 196 197 200 202 198 196 196 197 198 200 202 201 194 186 180 177 176 177 178 178 181 181 177 171 173 180 187 198
186 182 141 117 295 261 136 182 218 216 195 181 181 180 179 187 195 176 166 183 185 173 162 156 150 143 131 114 114 114 82 89 93 11 11 100 119 14 32 83 117 161 149 191 231 241 245 224 200 190 188 188 189 189 191 193 194 196 197 196 196 196 196 194 191 190 187 186 185 184 180 178 178 179 178 174 173 174 176 180 184 185 183 183 187 192 209
188 185 160 151 182 191 188 203 220 220 203 192 206 208 197 203 207 189 170 175 176 169 162 153 144 136 115 85 102 111 44 59 88 117 26 95 107 28 24 30 288 250 185 187 211 230 227 206 195 189 187 187 187 187 188 188 189 191 193 193 190 187 185 183 181 178 175 174 174 174 176 178 179 181 180 178 177 178 180 185 191 193 191 191 198 210 228
192 193 191 184 213 215 192 181 212 235 223 221 230 234 231 229 221 197 168 167 171 169 166 157 145 139 116 36 88 97 34 53 97 89 37 69 102 146 136 146 242 253 238 215 213 220 221 206 192 185 184 183 183 182 182 181 182 184 185 184 182 180 179 178 176 174 174 175 176 178 181 182 182 183 184 182 182 185 189 193 197 199 198 199 209 223 235
207 218 217 208 231 247 195 154 164 273 270 243 229 230 238 238 225 206 193 186 175 167 160 151 138 126 92 50 68 51 317 209 126 98 96 172 175 157 151 198 223 225 227 228 222 218 215 201 187 183 182 182 181 181 180 179 179 180 181 181 179 178 177 177 176 175 176 177 180 183 185 186 187 188 187 185 188 194 196 195 197 200 202 206 215 227 238
210 228 235 226 221 214 187 163 194 253 271 274 270 263 251 234 217 204 197 187 173 162 152 144 128 97 65 61 105 105 157 150 112 93 186 213 177 140 167 222 231 220 216 224 222 218 215 203 189 185 184 183 183 183 182 180 180 181 181 181 180 178 177 178 178 178 177 178 181 186 189 190 191 190 189 188 192 194 192 191 195 200 204 209 216 226 233
206 217 236 230 223 222 224 239 262 269 267 272 286 291 265 229 210 200 191 183 176 169 159 145 125 100 82 163 161 123 105 100 79 74 226 222 195 177 194 217 221 214 218 230 228 223 220 211 197 191 188 187 186 184 182 181 182 182 181 181 181 180 180 181 181 180 180 182 185 188 193 193 191 190 189 188 190 194 197 199 201 202 205 211 221 229 227